Flag for Portugal Weather past 2 weeks in Faro, Portugal

Now
57 °F

Passing clouds.


Feels Like: 56 °F
Forecast: 56 / 76 °F
Wind: 6 mph from North

Location: Faro / Aeroporto

Current Time: Mar 29, 2015 at 7:10:16 AM

Latest Report: Mar 29, 2015 at 6:30 AM


Visibility: N/A

Pressure: 30.27 "Hg

Humidity: 44%

Dew point: 36 °F

Location of FaroLocation

Historic Weather in Faro — Graph

°F

Faro temperature yesterday

Maximum temperature yesterday: 79 °F (at 6:00 PM)
Minimum temperature yesterday: 52 °F (at 5:30 AM)
Average temperature yesterday: 65 °F

Past Weeks' High & Low Weather Summary

 TemperatureHumidityPressure
High79 °F (Mar 28, 6:00 PM)100% (Mar 20, 10:30 PM)30.36 "Hg (Mar 20, 10:30 PM)
Low45 °F (Mar 16, 7:00 AM)17% (Mar 14, 3:30 PM)29.62 "Hg (Mar 24, 4:30 AM)
Average57 °F72%29.94 "Hg
* Reported Mar 14 5:00 AM — Mar 29 6:00 AM, Faro, Weather by CustomWeather, © 2015

Note: Actual official high and low records may vary slightly from our data, if they occured in-between our weather recording intervals... More about our weather records

Advertising

Faro weather history for previous 24 hours

 ConditionsComfort  
Time TempWeatherWind HumidityBarometerVisibility
6:00 AM
Sun, Mar 29
57 °FClear.2 mph55%30.30 "Hg10 mi
5:30 AM57 °FClear.5 mph55%30.27 "Hg10 mi
5:00 AM59 °FPassing clouds.5 mph48%30.30 "HgN/A
4:30 AM63 °FClear.2 mph37%30.30 "Hg10 mi
4:00 AM63 °FClear.6 mph42%30.30 "Hg10 mi
3:30 AM59 °FClear.3 mph51%30.30 "Hg10 mi
3:00 AM63 °FClear.2 mph49%30.30 "Hg10 mi
2:30 AM64 °FClear.3 mph40%30.30 "Hg10 mi
2:00 AM61 °FClear.8 mph59%30.30 "Hg10 mi
12:30 AM63 °FClear.3 mph59%30.33 "Hg10 mi
12:00 AM64 °FPassing clouds.3 mph56%30.33 "HgN/A
11:30 PM
Sat, Mar 28
64 °FClear.3 mph60%30.33 "Hg10 mi
11:00 PM64 °FClear.6 mph56%30.33 "Hg10 mi
10:30 PM66 °FClear.8 mph60%30.33 "Hg10 mi
10:00 PM68 °FClear.9 mph56%30.33 "Hg10 mi
9:30 PM70 °FPassing clouds.8 mph53%30.33 "HgN/A
9:00 PM64 °FClear.8 mph78%30.33 "Hg10 mi
8:30 PM70 °FClear.6 mph53%30.30 "Hg10 mi
8:00 PM73 °FClear.7 mph47%30.30 "Hg10 mi
7:30 PM73 °FPassing clouds.6 mph47%30.30 "HgN/A
7:00 PM75 °FPassing clouds.5 mph41%30.30 "HgN/A
6:30 PM77 °FSunny.12 mph36%30.30 "Hg10 mi
6:00 PM79 °FSunny.14 mph34%30.30 "Hg10 mi
5:00 PM72 °FSunny.2 mph69%30.27 "Hg10 mi
4:30 PM68 °FSunny.6 mph73%30.27 "Hg10 mi
4:00 PM68 °FSunny.9 mph73%30.27 "Hg10 mi
3:30 PM70 °FSunny.9 mph73%30.30 "Hg10 mi
3:00 PM70 °FSunny.7 mph69%30.30 "Hg10 mi
2:30 PM70 °FSunny.8 mph69%30.30 "Hg10 mi
2:00 PM72 °FSunny.7 mph61%30.30 "Hg10 mi
1:30 PM70 °FSunny.7 mph64%30.33 "Hg10 mi
1:00 PM72 °FPassing clouds.7 mph61%30.33 "HgN/A
12:30 PM72 °FSunny.7 mph61%30.36 "Hg10 mi
12:00 PM68 °FPassing clouds.8 mph64%30.36 "HgN/A
11:30 AM68 °FSunny.8 mph64%30.36 "Hg10 mi
11:00 AM68 °FSunny.7 mph64%30.36 "Hg10 mi
10:30 AM68 °FSunny.6 mph69%30.36 "Hg10 mi
10:00 AM68 °FSunny.6 mph64%30.36 "Hg10 mi
9:30 AM70 °FPassing clouds.5 mph64%30.36 "HgN/A
9:00 AM68 °FPassing clouds.5 mph69%30.36 "HgN/A
8:30 AM64 °FPassing clouds.3 mph78%30.33 "HgN/A
8:00 AM63 °FPassing clouds.3 mph88%30.33 "HgN/A
7:30 AM61 °FPassing clouds.3 mph88%30.33 "HgN/A
7:00 AM57 °FPassing clouds.7 mph88%30.33 "HgN/A
Weather by CustomWeather, © 2015

See weather overviewHow to use our weather pages